Regional Weather Roundup
Issued by NWS

Home | Current Version | Previous Version | Text Only | Print | Product List | Glossary On
Versions: 1 2 3 4 5 6 7 8 9 10 11 12 13 14 15 16 17 18 19 20 21 22 23 24 25 26 27 28 29 30 31 32 33 34 35 36 37 38 39 40 41 42 43 44 45 46 47 48 49 50
000
ASUS46 KSEW 030910
RWRWA

WASHINGTON REGIONAL WEATHER ROUNDUP
NATIONAL WEATHER SERVICE SEATTLE WA
200 AM PDT THU SEP 03 2015

NOTE:"FAIR" INDICATES FEW OR NO CLOUDS BELOW 12,000 FEET WITH NO
SIGNIFICANT WEATHER AND/OR OBSTRUCTIONS TO VISIBILITY.

WAZ505-507>509-031000-
SEATTLE, TACOMA, EVERETT, AND VICINITY

CITY           SKY/WX    TMP DP  RH WIND       PRES   REMARKS
EVERETT        MOCLDY    52  50  93 VRB3      29.97R
BOEING FIELD   PTCLDY    54  48  80 CALM      29.96S
RENTON         CLEAR     52  49  89 CALM      29.96S
SEATAC AIRPORT CLEAR     51  48  89 S5        29.97R
JBLM-MCCHORD   CLEAR     48  48  99 S2        29.97S
PUYALLUP       FAIR      50  50 100 CALM      29.98R
BREMERTON      CLEAR     43  43 100 CALM      29.99F
JBLM-FT LEWIS  CLEAR     48  48  99 SE9       29.96S
TACOMA NARROWS CLEAR     52  49  89 SW5       29.97S
$$

WAZ001-503-506-510-514-515-031000-
NORTH INTERIOR

CITY           SKY/WX    TMP DP  RH WIND       PRES   REMARKS
BELLINGHAM     CLOUDY    55  48  77 S7        29.94S
FRIDAY HARBOR  PTCLDY    47  45  93 CALM      29.96S
EASTSOUND      CLEAR     52  48  87 S9        29.92S
PORT ANGELES   PTCLDY    49  45  86 W8        29.96S
PORT TOWNSEND  CLOUDY    46  46 100 CALM      29.96S FOG
NAS WHIDBEY    MOCLDY    51  50  96 SE7       29.99S
ARLINGTON      MOCLDY    52  46  82 NE3       29.98R
BURLINGTON     CLOUDY    52  50  93 CALM      29.96S
$$

WAZ020-022-039-040-504-511-512-031000-
SOUTHWEST INTERIOR

CITY           SKY/WX    TMP DP  RH WIND       PRES   REMARKS
SHELTON        CLEAR     48  44  86 CALM      29.95S
OLYMPIA        CLEAR     50  47  89 S7        29.97S
CHEHALIS       PTCLDY    46  46 100 SW5       29.99S
KELSO          NOT AVBL
VANCOUVER      PTCLDY    53  47  79 CALM      29.99S
SCAPPOOSE, OR  CLEAR     50  46  86 CALM      29.99R
PORTLAND, OR   PTCLDY    56  50  80 SW5       29.99S
$$

WAZ021-516-517-031000-
WASHINGTON COAST

CITY           SKY/WX    TMP DP  RH WIND       PRES   REMARKS
FORKS          FAIR      50  49  96 CALM      29.96S
HOQUIAM        CLEAR     52  49  89 CALM      29.98S
ASTORIA, OR    CLEAR     48  46  93 E3        29.98S
$$

WAZ019-023-024-040-518-519-031000-
CASCADE MOUNTAINS AND COLUMBIA GORGE

CITY           SKY/WX    TMP DP  RH WIND       PRES   REMARKS
TROUTDALE, OR  MOCLDY    56  52  86 CALM      29.99S
THE DALLES, OR CLEAR     56  47  71 NW10      29.95R
$$

WAZ026-027-041>044-520-521-031000-
EAST SLOPES

CITY           SKY/WX    TMP DP  RH WIND       PRES   REMARKS
OMAK           PTCLDY    50  28  42 W5        29.84R
WENATCHEE      CLEAR     54  37  52 NW12      29.88S
ELLENSBURG     CLEAR     49  39  68 W9        29.91R
YAKIMA         CLEAR     45  36  70 VRB7      29.92R
$$

WAZ028-034-035-031000-
COLUMBIA BASIN

CITY           SKY/WX    TMP DP  RH WIND       PRES   REMARKS
EPHRATA        CLEAR     56  35  45 W13G20    29.85R
MOSES LAKE     PTCLDY    55  41  59 SW7       29.87S
PASCO          CLOUDY    59  40  49 W5        29.91R
HERMISTON, OR  CLOUDY    60  45  57 SW7       29.91R
$$

WAZ036>038-031000-
NORTHEAST WASHINGTON

CITY           SKY/WX    TMP DP  RH WIND       PRES   REMARKS
SPOKANE GEIGER PTCLDY    51  42  71 SE9       29.86S
SPOKANE FELTS  CLOUDY    59  42  53 E7        29.86S
FAIRCHILD AFB  MOCLDY    50  42  74 S8        29.86R
COEURDALENE,ID MOCLDY    54  46  76 S8        29.87S
DEER PARK      PTCLDY    48  41  76 CALM      29.86S
$$

WAZ029>033-031000-
SOUTHEAST WASHINGTON

CITY           SKY/WX    TMP DP  RH WIND       PRES   REMARKS
PULLMAN        CLOUDY    50  46  86 CALM      29.91S
LEWISTON, ID   CLOUDY    60  47  61 W5        29.87R
WALLA WALLA    CLOUDY    57  47  69 S7        29.92S
PENDLETON, OR  LGT RAIN  57  42  57 W9        29.93R
$$



USA.gov is the U.S. government's official web portal to all federal, state and local government web resources and services.